Wind_Speed
8 8 9 8 9 9 9 10 11 12 12 13 13 13 13 13 13 12 13 14 14 14 14 14 15 15 14 14 14 14 14 14 14 13 12 13 13 13 13 12 12 12 12
8 8 8 9 9 9 10 10 10 10 11 11 13 13 13 13 13 14 14 14 14 14 15 16 16 16 15 15 15 15 15 15 15 15 14 14 14 14 13 13 12 12 12
8 8 9 9 9 9 9 9 9 10 10 10 11 12 13 13 13 14 14 14 14 14 15 16 16 16 16 16 16 16 16 16 16 16 16 15 15 14 14 13 12 12 12
7 8 8 9 10 10 9 9 9 10 10 10 10 11 12 13 13 14 14 15 15 15 15 15 16 16 16 16 16 16 16 17 17 17 17 16 15 15 15 15 13 13 12
8 8 8 9 10 10 10 10 10 10 10 10 11 11 11 12 13 13 14 14 14 15 15 15 16 16 16 16 16 16 16 16 16 16 16 16 15 15 15 15 14 13 13
8 8 8 9 10 10 10 9 10 10 10 10 10 11 11 12 12 13 14 14 14 14 14 15 15 15 15 15 15 15 15 15 15 15 15 15 15 15 14 14 13 13 12
8 9 9 10 10 10 10 10 10 10 10 10 11 11 11 12 12 13 13 13 13 14 14 14 14 13 14 15 15 15 15 15 15 15 14 14 14 14 14 14 14 14 13
10 10 10 10 10 10 10 10 10 10 11 11 11 11 12 13 13 13 13 13 13 14 14 13 12 12 13 13 13 13 14 14 14 14 14 14 14 14 14 15 15 15 15
11 11 11 11 10 10 10 10 11 11 11 11 12 12 12 13 13 13 13 14 13 14 13 13 13 13 13 13 13 14 14 14 14 15 14 14 14 14 15 16 15 15 15
11 12 12 11 11 10 11 11 11 12 12 12 12 12 12 13 13 13 14 14 14 14 14 14 13 13 13 14 14 14 15 15 14 14 15 15 15 15 15 15 16 16 16
12 12 12 12 12 11 11 12 12 12 12 12 13 13 14 14 14 14 14 14 14 14 14 14 14 13 13 14 14 14 15 15 14 15 16 16 17 16 16 16 16 16 17
13 13 13 12 12 12 12 12 12 12 12 13 14 14 15 15 15 16 16 15 15 15 15 15 15 15 15 15 15 15 16 16 16 17 17 17 17 17 17 17 17 17 17
14 14 14 14 13 13 13 12 12 13 14 14 15 15 16 16 17 17 17 17 17 16 16 16 16 17 16 16 17 17 17 17 18 18 18 17 17 18 18 18 18 18 18
15 15 15 15 15 14 14 14 14 15 15 15 15 16 17 17 18 18 18 18 18 17 17 17 17 18 18 17 17 17 18 18 18 19 18 18 19 20 20 20 18 18 18
17 17 16 16 16 16 16 16 16 16 16 16 16 17 17 17 17 18 18 18 18 18 18 17 17 18 18 18 18 18 18 18 19 19 19 19 19 19 19 19 19 18 19
18 18 18 18 17 17 18 18 18 18 18 18 18 18 18 18 18 18 18 18 18 18 18 18 18 18 18 19 19 18 18 18 19 19 19 19 19 19 19 19 18 18 18
18 18 18 18 18 18 18 19 19 19 19 19 19 19 19 19 19 19 20 20 19 20 19 19 20 20 20 20 20 19 20 19 19 19 19 20 20 20 19 19 18 19 19
19 19 20 20 19 19 19 19 20 20 19 20 19 19 19 20 20 20 20 20 20 20 20 20 21 21 21 20 21 21 21 21 21 21 21 21 21 21 20 20 19 19 19
20 20 20 20 20 19 20 20 20 19 20 20 20 20 20 20 21 21 21 22 22 22 22 21 21 21 21 21 21 21 22 22 21 21 22 23 22 22 22 21 21 21 21
20 21 20 20 19 20 20 20 20 19 19 20 20 20 20 21 21 22 22 22 23 23 22 22 22 22 22 22 22 23 23 23 22 23 24 23 23 23 22 22 22 22 22
21 21 20 20 20 20 20 20 20 19 19 20 20 20 21 21 21 22 22 22 22 23 23 23 23 22 22 23 23 23 23 23 24 24 23 23 23 23 23 23 23 23 23
22 22 21 21 20 20 20 20 20 19 20 20 21 21 21 21 20 21 21 22 22 22 22 23 24 23 23 23 23 23 23 24 24 23 23 23 22 22 23 23 23 23 23
22 22 22 21 21 21 20 20 20 20 20 21 21 20 21 21 21 21 21 22 22 23 22 23 24 24 24 25 25 25 24 24 23 23 23 23 23 23 23 23 24 24 25
23 23 23 23 22 21 21 21 21 21 21 21 21 21 21 21 21 21 21 22 22 23 23 23 23 24 25 25 26 25 25 24 24 24 24 24 24 24 24 25 25 26 27
24 23 23 23 23 23 23 23 23 22 22 22 22 22 22 22 21 21 22 22 23 23 24 24 24 24 25 25 25 26 26 26 25 25 26 26 26 26 27 27 27 28 28
25 24 23 23 22 22 23 24 24 23 23 22 23 23 23 22 22 22 22 23 23 23 24 25 26 26 26 26 26 26 27 28 27 27 26 27 27 28 29 29 29 30 30
Wind_Direction
285 287 284 281 278 274 272 267 263 261 257 254 249 244 242 243 240 238 240 241 243 246 248 250 251 251 249 250 251 252 252 253 256 256 256 257 257 257 255 257 259 264 264
287 285 282 280 279 278 277 271 270 266 261 256 253 249 250 247 243 240 240 243 246 248 250 251 250 251 252 253 254 253 252 254 255 254 256 256 256 254 255 257 260 263 264
294 291 287 283 282 280 275 273 273 271 262 256 255 254 254 251 248 247 248 248 245 247 250 249 247 249 252 253 253 252 251 252 253 254 254 254 254 254 256 258 258 260 264
297 295 289 284 283 282 278 276 274 269 263 256 251 252 253 251 251 251 251 251 248 252 253 251 249 249 251 253 253 251 251 251 251 250 251 252 252 254 257 257 257 259 261
301 297 289 285 286 283 279 276 275 271 265 259 255 252 252 250 250 250 251 250 250 255 255 252 249 248 249 250 251 251 250 250 250 249 249 250 252 255 257 257 258 258 260
302 300 295 286 284 282 278 273 273 270 265 258 255 255 254 251 251 250 254 255 253 254 252 250 249 251 252 250 249 250 247 247 247 250 250 250 252 253 255 258 260 262 263
300 298 295 293 287 286 280 274 271 269 265 261 259 257 254 253 255 255 256 256 256 255 254 254 252 251 252 252 252 252 251 250 248 249 250 252 253 255 257 259 263 265 264
297 297 296 296 295 291 283 276 270 270 269 267 263 256 255 253 252 253 256 254 256 257 257 258 261 258 255 252 250 250 250 250 249 248 248 251 255 257 258 261 263 264 264
294 295 296 293 291 290 288 284 274 270 270 270 266 261 257 251 250 252 254 256 256 259 258 257 259 262 259 255 252 251 251 251 251 250 250 254 257 260 260 260 261 262 262
295 295 295 290 287 287 285 285 285 281 275 273 272 267 262 259 256 255 258 260 259 260 257 257 259 260 259 256 256 254 251 252 251 251 252 255 257 261 262 259 260 262 261
292 293 293 289 285 284 281 281 283 282 277 275 274 270 265 264 261 261 261 261 262 261 260 260 258 258 259 256 256 257 254 252 252 253 255 256 258 261 262 260 261 264 264
289 291 292 290 285 285 283 280 280 278 276 274 272 270 268 266 265 264 264 262 263 262 261 261 260 258 257 255 254 256 255 255 256 255 257 259 260 262 262 260 263 265 265
287 288 289 289 285 284 284 282 280 278 276 274 273 269 267 266 266 266 265 263 262 261 260 259 258 257 256 256 255 257 257 257 257 257 257 259 261 262 260 261 264 264 264
284 285 285 285 282 282 281 280 280 279 278 275 275 272 270 268 267 265 265 263 261 260 260 259 257 258 257 257 257 257 255 254 255 257 260 260 262 262 261 264 263 263 265
280 281 282 283 281 278 279 279 279 280 278 275 274 273 272 270 268 266 264 263 262 260 259 258 256 257 257 258 259 259 257 255 255 257 262 261 262 259 258 261 262 264 266
279 279 280 281 281 279 278 279 279 278 277 276 275 274 271 269 268 266 263 262 262 261 260 258 256 257 257 257 259 261 259 261 261 261 260 261 261 260 262 260 261 262 265
280 279 280 279 280 279 278 279 279 278 278 277 275 273 271 268 266 265 264 262 262 261 260 259 258 258 257 257 258 260 262 263 265 264 264 264 264 263 264 262 262 264 265
279 280 280 278 277 278 279 279 278 276 276 276 274 272 271 268 266 265 263 262 261 260 260 260 259 259 259 261 261 261 263 263 265 266 266 267 267 266 264 264 264 266 267
279 281 282 279 277 278 279 279 279 276 275 275 274 271 271 269 268 266 264 262 260 259 259 258 258 258 260 262 262 261 264 265 265 265 267 267 267 265 264 264 264 266 267
278 280 282 279 277 277 277 278 279 277 276 275 274 272 272 270 269 267 266 265 263 260 259 258 258 258 259 262 263 263 265 266 266 267 267 266 264 263 263 262 263 264 265
276 278 280 279 279 278 277 277 278 277 276 275 274 273 273 272 272 269 266 265 265 262 260 259 259 259 260 261 263 264 265 267 267 266 266 266 265 263 262 261 261 263 266
275 276 277 278 279 277 275 277 277 277 277 277 276 274 272 271 273 272 270 269 266 264 260 259 260 261 261 262 263 263 264 266 266 265 265 265 264 262 261 259 259 261 265
273 275 276 276 275 275 276 275 277 277 277 277 276 274 273 271 271 273 272 270 268 265 262 261 260 260 261 263 263 263 263 265 264 264 265 264 263 263 263 263 263 264 264
274 274 273 273 273 273 274 275 275 276 276 277 275 274 273 272 270 271 272 272 270 268 265 262 261 260 261 262 262 262 262 265 266 265 264 263 262 264 265 266 267 268 269
275 274 273 272 272 272 272 272 273 274 274 274 275 275 274 273 272 271 273 274 272 270 268 266 264 264 264 265 265 264 263 264 265 264 263 264 263 264 266 267 268 269 270
274 273 273 273 272 271 271 271 271 272 272 273 275 275 273 272 272 272 272 273 273 273 271 269 268 267 267 267 267 266 265 265 265 266 266 265 265 266 266 267 268 270 271
Height
5835 5835 5834 5834 5834 5834 5834 5833 5833 5834 5834 5834 5835 5836 5837 5838 5839 5840 5841 5842 5843 5844 5845 5845 5846 5847 5848 5848 5849 5850 5851 5852 5853 5854 5854 5855 5856 5856 5857 5858 5858 5859 5859
5834 5833 5832 5832 5832 5832 5831 5831 5831 5831 5831 5831 5832 5833 5834 5835 5836 5837 5838 5839 5840 5840 5841 5842 5842 5843 5844 5845 5846 5847 5847 5848 5849 5851 5851 5852 5853 5854 5854 5855 5856 5856 5857
5832 5831 5831 5830 5830 5829 5829 5829 5828 5828 5828 5829 5829 5830 5831 5832 5833 5834 5835 5836 5837 5837 5838 5838 5839 5839 5841 5841 5842 5843 5844 5845 5846 5847 5848 5849 5850 5851 5852 5852 5853 5854 5854
5830 5830 5829 5828 5828 5827 5827 5826 5826 5826 5826 5826 5827 5828 5829 5829 5830 5831 5832 5833 5834 5834 5834 5835 5835 5836 5837 5838 5839 5839 5840 5841 5842 5844 5845 5846 5847 5848 5849 5849 5850 5851 5851
5829 5828 5827 5826 5826 5825 5825 5824 5824 5824 5824 5824 5825 5826 5826 5827 5828 5828 5829 5830 5830 5831 5831 5832 5832 5832 5833 5834 5835 5836 5836 5837 5839 5840 5841 5843 5844 5844 5845 5846 5847 5848 5848
5827 5826 5825 5824 5824 5823 5822 5822 5822 5822 5822 5822 5823 5823 5824 5824 5825 5826 5826 5827 5827 5828 5828 5828 5828 5829 5829 5830 5831 5832 5833 5834 5835 5837 5838 5839 5840 5841 5842 5843 5844 5844 5845
5825 5824 5823 5822 5821 5821 5820 5820 5820 5819 5819 5820 5820 5821 5821 5822 5822 5823 5823 5823 5824 5824 5824 5825 5825 5825 5826 5826 5827 5828 5829 5830 5832 5833 5834 5836 5837 5838 5839 5840 5841 5841 5842
5823 5822 5821 5820 5819 5818 5818 5817 5817 5817 5817 5817 5817 5818 5818 5819 5819 5819 5820 5820 5820 5821 5821 5821 5821 5822 5822 5823 5824 5825 5826 5827 5828 5829 5831 5832 5833 5834 5835 5836 5837 5838 5838
5820 5819 5818 5817 5817 5816 5815 5815 5815 5814 5814 5814 5814 5815 5815 5816 5816 5816 5816 5817 5817 5817 5817 5818 5818 5819 5819 5820 5821 5822 5822 5823 5825 5826 5827 5829 5830 5831 5832 5832 5833 5834 5834
5817 5816 5815 5815 5814 5813 5813 5812 5812 5811 5811 5811 5811 5811 5812 5812 5813 5814 5814 5814 5814 5814 5814 5815 5815 5815 5816 5817 5818 5818 5819 5820 5821 5823 5824 5825 5826 5827 5828 5829 5829 5830 5831
5814 5813 5812 5812 5811 5810 5810 5810 5809 5809 5808 5808 5808 5808 5808 5809 5809 5810 5810 5811 5811 5811 5811 5811 5812 5812 5813 5814 5814 5815 5816 5817 5818 5819 5820 5821 5822 5823 5824 5825 5825 5826 5827
5810 5809 5809 5808 5807 5807 5807 5806 5806 5806 5805 5805 5805 5805 5805 5805 5805 5806 5806 5807 5807 5807 5808 5808 5808 5809 5810 5810 5811 5812 5813 5814 5815 5815 5816 5817 5818 5819 5820 5820 5821 5822 5822
5806 5806 5805 5804 5804 5803 5803 5803 5802 5802 5802 5801 5801 5801 5801 5801 5801 5801 5802 5802 5803 5804 5804 5804 5804 5805 5806 5806 5807 5808 5809 5810 5810 5811 5812 5813 5814 5815 5815 5816 5817 5817 5818
5802 5802 5801 5800 5799 5799 5799 5799 5798 5798 5797 5797 5797 5797 5797 5796 5797 5797 5797 5798 5798 5799 5799 5800 5800 5800 5801 5802 5803 5804 5805 5805 5806 5807 5808 5809 5809 5810 5810 5811 5811 5812 5812
5798 5797 5796 5796 5795 5794 5794 5794 5794 5793 5793 5792 5792 5792 5792 5792 5792 5792 5792 5793 5794 5794 5795 5795 5795 5796 5797 5798 5799 5799 5800 5801 5801 5802 5803 5804 5804 5805 5805 5805 5806 5807 5807
5793 5792 5792 5791 5790 5790 5789 5789 5789 5788 5788 5787 5787 5787 5787 5787 5787 5787 5787 5787 5788 5789 5790 5790 5791 5791 5792 5793 5794 5795 5795 5796 5796 5797 5798 5799 5799 5799 5800 5801 5801 5802 5802
5787 5787 5786 5786 5785 5784 5784 5784 5783 5783 5783 5782 5782 5782 5781 5781 5781 5781 5781 5782 5782 5783 5784 5785 5785 5786 5787 5788 5789 5790 5790 5791 5791 5792 5792 5793 5793 5794 5795 5796 5796 5797 5797
5782 5781 5781 5780 5780 5779 5779 5778 5778 5777 5777 5776 5776 5776 5776 5776 5776 5775 5776 5776 5776 5777 5778 5779 5780 5780 5781 5782 5783 5784 5785 5785 5786 5786 5787 5787 5788 5788 5789 5790 5791 5791 5792
5777 5776 5775 5775 5774 5774 5773 5773 5772 5772 5771 5771 5770 5770 5770 5770 5770 5769 5770 5770 5770 5771 5772 5773 5774 5775 5776 5777 5778 5779 5779 5780 5780 5781 5781 5781 5781 5782 5783 5784 5785 5786 5786
5771 5770 5770 5769 5768 5768 5767 5767 5766 5766 5765 5765 5764 5764 5764 5764 5764 5763 5763 5763 5764 5764 5765 5767 5768 5769 5770 5770 5771 5772 5773 5774 5774 5774 5774 5774 5774 5775 5776 5777 5778 5779 5780
5765 5764 5764 5763 5763 5762 5761 5761 5761 5760 5759 5759 5759 5758 5758 5758 5757 5757 5757 5757 5757 5758 5759 5760 5761 5762 5763 5764 5765 5766 5767 5767 5768 5767 5767 5767 5767 5768 5769 5770 5771 5772 5773
5758 5758 5758 5757 5757 5756 5756 5755 5755 5754 5754 5753 5753 5752 5752 5752 5751 5751 5751 5750 5750 5751 5752 5753 5754 5755 5756 5757 5758 5759 5760 5760 5761 5761 5761 5761 5760 5761 5762 5763 5765 5766 5766
5752 5752 5751 5751 5751 5750 5750 5749 5749 5748 5748 5747 5747 5746 5746 5745 5745 5745 5745 5744 5744 5744 5745 5746 5747 5748 5749 5750 5751 5752 5753 5753 5754 5754 5754 5754 5754 5755 5756 5757 5758 5759 5759
5745 5745 5745 5744 5744 5744 5743 5743 5742 5742 5742 5741 5741 5740 5740 5739 5739 5739 5739 5738 5738 5738 5738 5739 5740 5741 5742 5743 5744 5745 5745 5746 5747 5747 5748 5748 5748 5749 5749 5750 5750 5751 5751
5738 5738 5737 5737 5737 5737 5737 5736 5736 5735 5735 5735 5734 5734 5733 5733 5733 5732 5732 5732 5732 5732 5732 5732 5733 5733 5734 5734 5735 5736 5737 5738 5739 5740 5740 5741 5741 5741 5742 5742 5742 5743 5743
5731 5730 5730 5730 5730 5730 5730 5729 5729 5728 5728 5728 5727 5727 5727 5726 5726 5726 5726 5726 5725 5725 5725 5725 5725 5726 5726 5727 5727 5728 5728 5729 5730 5731 5732 5732 5732 5733 5733 5734 5734 5734 5734